This is the latest recevied weather packets stored in our database for station/object K7D3. If no packets are shown the sender has not sent any weather packets the latest 10 day(s).
| Time | Temp. | Humidity | Pressure | Rain* | Wind** | Luminosity | Snow |
|---|---|---|---|---|---|---|---|
| 1777864340 | 12.78° C | 61% | - | 0 mm | 2.68 m/s, 203° | - | - |
| 1777863861 | 12.78° C | 58% | - | 0 mm | 2.24 m/s, 208° | - | - |
| 1777863382 | 12.78° C | 58% | - | 0 mm | 4.02 m/s, 248° | - | - |
| 1777862900 | 12.22° C | 58% | - | 0 mm | 3.58 m/s, 245° | - | - |
| 1777862421 | 12.78° C | 58% | - | 0 mm | 3.58 m/s, 239° | - | - |
| 1777861942 | 13.33° C | 57% | - | 0 mm | 4.02 m/s, 250° | - | - |
| 1777861459 | 12.78° C | 57% | - | 0 mm | 3.58 m/s, 245° | - | - |
| 1777860981 | 12.78° C | 57% | - | 0 mm | 4.02 m/s, 248° | - | - |
| 1777860502 | 12.78° C | 57% | - | 0 mm | 5.81 m/s, 285° | - | - |
| 1777860019 | 12.78° C | 57% | - | 0 mm | 4.02 m/s, 264° | - | - |
| 1777859540 | 12.78° C | 56% | - | 0 mm | 4.47 m/s, 277° | - | - |
| 1777859061 | 12.78° C | 57% | - | 0 mm | 4.92 m/s, 273° | - | - |
| 1777858576 | 12.78° C | 56% | - | 0 mm | 4.02 m/s, 252° | - | - |
| 1777858097 | 12.78° C | 56% | - | 0 mm | 2.68 m/s, 263° | - | - |
| 1777857618 | 12.78° C | 55% | - | 0 mm | 3.58 m/s, 266° | - | - |
| 1777857134 | 12.78° C | 55% | - | 0 mm | 2.68 m/s, 297° | - | - |
| 1777856655 | 12.78° C | 54% | - | 0 mm | 3.13 m/s, 260° | - | - |
| 1777856176 | 12.78° C | 54% | - | 0 mm | 4.47 m/s, 259° | - | - |
| 1777855694 | 13.33° C | 54% | - | 0 mm | 4.47 m/s, 270° | - | - |
| 1777855216 | 13.33° C | 53% | - | 0 mm | 4.47 m/s, 238° | - | - |
| 1777854737 | 13.33° C | 53% | - | 0 mm | 4.02 m/s, 263° | - | - |
| 1777854254 | 13.33° C | 53% | - | 0 mm | 4.92 m/s, 285° | - | - |
| 1777853776 | 13.89° C | 53% | - | 0 mm | 4.02 m/s, 256° | - | - |
| 1777853297 | 13.89° C | 51% | - | 0 mm | 5.81 m/s, 245° | - | - |
| 1777852815 | 13.89° C | 51% | - | 0 mm | 3.13 m/s, 295° | - | - |
* Rain latest hour (hover to see other rain measurements)
** Current wind speed in m/s (hover to see current wind gust speed)